{"data":{"norad_id":64041,"intl_designator":"2025-102V","name":"STARLINK-34111","alt_names":[],"object_type":"PAYLOAD","status":"ACTIVE","operator":null,"country":"US","launch_date":"2025-05-16","launch_site_code":"AFWTR","launch_vehicle":null,"mission":null,"orbit_class":"UNKNOWN","rcs_meters":null,"size_class":null,"mass_kg":null,"dimensions":null,"purposes":["comms"],"wikipedia_slug":null,"has_3d_model":false,"image_url":null,"decayed_at":null,"tle_current":{"epoch":"2026-05-25T01:57:02.147904Z","epoch_age_seconds":82171,"freshness":"FRESH","line1":"1 64041U 25102V   26145.08127486  .00004544  00000+0  38836-3 0  9996","line2":"2 64041  70.0006 281.8860 0003205 274.2648  85.8144 14.98330664 57170","mean_motion":14.98330664,"eccentricity":0.0003205,"inclination_deg":70.0006,"raan_deg":281.886,"arg_perigee_deg":274.2648,"mean_anomaly_deg":85.8144,"bstar":0.00038836,"rev_number":5717,"period_min":96.106956534929,"perigee_km":569.8263014165,"apogee_km":574.28137374339,"semimajor_km":6950.1908375799,"source":"CELESTRAK","updated_at":"2026-05-25T13:38:20.254168Z"}}}